Time,TemperatureF,DewpointF,PressureIn,WindDirection,WindDirectionDegrees,WindSpeedMPH,WindSpeedGustMPH,Humidity,HourlyPrecipIn,Conditions,Clouds,dailyrainin,SoftwareType,DateUTC
2013-05-11 00:32:00,54.0,-99.9,-100.00,NW,314,2.0,3.0,-999,-99.99,,,-99.99,,2013-05-11 06:32:00,
2013-05-11 00:42:00,54.0,-99.9,-100.00,NW,314,2.0,3.0,-999,-99.99,,,-99.99,,2013-05-11 06:42:00,
2013-05-11 02:22:00,51.0,-99.9,-100.00,NNW,332,3.0,3.0,-999,-99.99,,,-99.99,,2013-05-11 08:22:00,
2013-05-11 02:30:00,49.0,-99.9,-100.00,NW,326,1.0,2.0,-999,-99.99,,,-99.99,,2013-05-11 08:30:00,
2013-05-11 02:32:00,51.0,-99.9,-100.00,NNW,332,3.0,3.0,-999,-99.99,,,-99.99,,2013-05-11 08:32:00,
2013-05-11 03:10:00,47.0,-99.9,-100.00,NW,321,1.0,3.0,-999,-99.99,,,-99.99,,2013-05-11 09:10:00,
2013-05-11 03:22:00,49.0,-99.9,-100.00,NW,326,1.0,2.0,-999,-99.99,,,-99.99,,2013-05-11 09:22:00,
2013-05-11 03:53:00,47.0,-99.9,-100.00,NW,321,1.0,3.0,-999,-99.99,,,-99.99,,2013-05-11 09:53:00,
2013-05-11 04:03:00,47.0,-99.9,-100.00,NW,321,1.0,3.0,-999,-99.99,,,-99.99,,2013-05-11 10:03:00,
2013-05-11 05:03:00,47.0,-99.9,-100.00,NW,314,1.0,3.0,-999,-99.99,,,-99.99,,2013-05-11 11:03:00,
2013-05-11 05:12:00,47.0,-99.9,-100.00,NW,314,1.0,3.0,-999,-99.99,,,-99.99,,2013-05-11 11:12:00,
2013-05-11 05:22:00,47.0,-99.9,-100.00,NW,314,1.0,3.0,-999,-99.99,,,-99.99,,2013-05-11 11:22:00,
2013-05-11 07:10:00,47.0,-99.9,-100.00,NW,306,3.0,3.0,-999,-99.99,,,-99.99,,2013-05-11 13:10:00,
2013-05-11 07:52:00,47.0,-99.9,-100.00,NW,306,3.0,3.0,-999,-99.99,,,-99.99,,2013-05-11 13:52:00,
2013-05-11 08:02:00,47.0,-99.9,-100.00,NW,306,3.0,3.0,-999,-99.99,,,-99.99,,2013-05-11 14:02:00,
2013-05-11 08:21:00,49.0,-99.9,-100.00,WNW,297,2.0,3.0,-999,-99.99,,,-99.99,,2013-05-11 14:21:00,
2013-05-11 08:32:00,52.0,-99.9,-100.00,NW,312,3.0,4.0,-999,-99.99,,,-99.99,,2013-05-11 14:32:00,
2013-05-11 08:42:00,52.0,-99.9,-100.00,NW,312,3.0,4.0,-999,-99.99,,,-99.99,,2013-05-11 14:42:00,
2013-05-11 08:52:00,52.0,-99.9,-100.00,NW,312,3.0,4.0,-999,-99.99,,,-99.99,,2013-05-11 14:52:00,
2013-05-11 10:33:00,61.0,-99.9,-100.00,ENE,59,3.0,6.0,-999,-99.99,,,-99.99,,2013-05-11 16:33:00,
2013-05-11 10:42:00,61.0,-99.9,-100.00,ENE,59,3.0,6.0,-999,-99.99,,,-99.99,,2013-05-11 16:42:00,
2013-05-11 10:53:00,61.0,-99.9,-100.00,ENE,59,3.0,6.0,-999,-99.99,,,-99.99,,2013-05-11 16:53:00,
2013-05-11 11:20:00,63.0,-99.9,-100.00,NE,48,1.0,5.0,-999,-99.99,,,-99.99,,2013-05-11 17:20:00,
2013-05-11 12:01:00,63.0,-99.9,-100.00,NE,48,1.0,5.0,-999,-99.99,,,-99.99,,2013-05-11 18:01:00,
2013-05-11 12:12:00,63.0,-99.9,-100.00,NE,48,1.0,5.0,-999,-99.99,,,-99.99,,2013-05-11 18:12:00,
2013-05-11 13:50:00,65.0,-99.9,-100.00,ENE,58,1.0,4.0,-999,-99.99,,,-99.99,,2013-05-11 19:50:00,
2013-05-11 14:32:00,65.0,-99.9,-100.00,ENE,58,1.0,4.0,-999,-99.99,,,-99.99,,2013-05-11 20:32:00,
2013-05-11 14:42:00,65.0,-99.9,-100.00,ENE,58,1.0,4.0,-999,-99.99,,,-99.99,,2013-05-11 20:42:00,
2013-05-11 16:03:00,69.0,-99.9,-100.00,NNW,339,0.0,5.0,-999,-99.99,,,-99.99,,2013-05-11 22:03:00,
2013-05-11 16:13:00,69.0,-99.9,-100.00,NNW,339,0.0,5.0,-999,-99.99,,,-99.99,,2013-05-11 22:13:00,
2013-05-11 16:23:00,69.0,-99.9,-100.00,NNW,339,0.0,5.0,-999,-99.99,,,-99.99,,2013-05-11 22:23:00,
2013-05-11 16:40:00,72.0,-99.9,-100.00,East,95,4.0,6.0,-999,-99.99,,,-99.99,,2013-05-11 22:40:00,
2013-05-11 17:02:00,71.0,-99.9,-100.00,North,353,2.0,8.0,-999,-99.99,,,-99.99,,2013-05-11 23:02:00,
2013-05-11 17:10:00,71.0,-99.9,-100.00,East,80,2.0,8.0,-999,-99.99,,,-99.99,,2013-05-11 23:10:00,
2013-05-11 17:12:00,71.0,-99.9,-100.00,North,353,2.0,8.0,-999,-99.99,,,-99.99,,2013-05-11 23:12:00,
2013-05-11 17:22:00,72.0,-99.9,-100.00,East,95,4.0,6.0,-999,-99.99,,,-99.99,,2013-05-11 23:22:00,
2013-05-11 17:32:00,72.0,-99.9,-100.00,East,95,4.0,6.0,-999,-99.99,,,-99.99,,2013-05-11 23:32:00,
2013-05-11 17:52:00,71.0,-99.9,-100.00,East,80,2.0,8.0,-999,-99.99,,,-99.99,,2013-05-11 23:52:00,
2013-05-11 18:01:00,71.0,-99.9,-100.00,East,80,2.0,8.0,-999,-99.99,,,-99.99,,2013-05-12 00:01:00,
2013-05-11 18:50:00,70.0,-99.9,-100.00,NE,34,2.0,6.0,-999,-99.99,,,-99.99,,2013-05-12 00:50:00,
2013-05-11 19:30:00,69.0,-99.9,-100.00,ENE,66,6.0,7.0,-999,-99.99,,,-99.99,,2013-05-12 01:30:00,
2013-05-11 19:32:00,70.0,-99.9,-100.00,NE,34,2.0,6.0,-999,-99.99,,,-99.99,,2013-05-12 01:32:00,
2013-05-11 19:42:00,70.0,-99.9,-100.00,NE,34,2.0,6.0,-999,-99.99,,,-99.99,,2013-05-12 01:42:00,
2013-05-11 20:02:00,69.0,-99.9,-100.00,ENE,66,6.0,7.0,-999,-99.99,,,-99.99,,2013-05-12 02:02:00,
2013-05-11 20:12:00,69.0,-99.9,-100.00,ENE,66,6.0,7.0,-999,-99.99,,,-99.99,,2013-05-12 02:12:00,
2013-05-11 20:22:00,69.0,-99.9,-100.00,ENE,66,6.0,7.0,-999,-99.99,,,-99.99,,2013-05-12 02:22:00,
2013-05-11 21:40:00,61.0,-99.9,-100.00,East,93,3.0,4.0,-999,-99.99,,,-99.99,,2013-05-12 03:40:00,
2013-05-11 22:23:00,61.0,-99.9,-100.00,East,93,3.0,4.0,-999,-99.99,,,-99.99,,2013-05-12 04:23:00,
2013-05-11 22:33:00,61.0,-99.9,-100.00,East,93,3.0,4.0,-999,-99.99,,,-99.99,,2013-05-12 04:33:00,
2013-05-11 22:52:00,60.0,-99.9,-100.00,ENE,74,1.0,3.0,-999,-99.99,,,-99.99,,2013-05-12 04:52:00,
2013-05-11 23:02:00,60.0,-99.9,-100.00,ENE,74,1.0,3.0,-999,-99.99,,,-99.99,,2013-05-12 05:02:00,